| time (UTC) | temp F | wind direction | speed MPH | gust MPH | rain 1hr in | rain 24hr in | rain mn in | humidity % | barometer mb |
| 20260503233237 | 67 | 252 | 2.0 | 3.0 | 0.00 | 0.00 | 0.00 | 48 | 1004.8 |
| 20260503232735 | 68 | 241 | 3.0 | 6.0 | 0.00 | 0.00 | 0.00 | 48 | 1004.8 |
| 20260503232232 | 68 | 251 | 3.0 | 3.0 | 0.00 | 0.00 | 0.00 | 48 | 1004.6 |
| 20260503231730 | 68 | 245 | 1.0 | 2.0 | 0.00 | 0.00 | 0.00 | 48 | 1005.1 |
| 20260503231226 | 68 | 355 | 3.0 | 5.0 | 0.00 | 0.00 | 0.00 | 49 | 1005.0 |
| 20260503230722 | 68 | 311 | 2.0 | 3.0 | 0.00 | 0.00 | 0.00 | 47 | 1004.8 |
| 20260503230220 | 69 | 247 | 4.0 | 6.0 | 0.00 | 0.00 | 0.00 | 47 | 1004.9 |
| 20260503225717 | 69 | 207 | 2.0 | 2.0 | 0.00 | 0.00 | 0.00 | 47 | 1005.0 |
| 20260503225217 | 69 | 221 | 6.0 | 10.0 | 0.00 | 0.00 | 0.00 | 46 | 1004.9 |
| 20260503224715 | 69 | 247 | 2.0 | 3.0 | 0.00 | 0.00 | 0.00 | 47 | 1005.1 |
| 20260503224213 | 68 | 285 | 2.0 | 2.0 | 0.00 | 0.00 | 0.00 | 49 | 1005.0 |
| 20260503223710 | 68 | 249 | 5.0 | 7.0 | 0.00 | 0.00 | 0.00 | 47 | 1005.1 |
| 20260503223207 | 68 | 175 | 2.0 | 2.0 | 0.00 | 0.00 | 0.00 | 48 | 1004.9 |
| 20260503222703 | 68 | 228 | 5.0 | 7.0 | 0.00 | 0.00 | 0.00 | 47 | 1005.2 |
| 20260503222201 | 68 | 273 | 5.0 | 6.0 | 0.00 | 0.00 | 0.00 | 47 | 1005.4 |
| 20260503221659 | 68 | 235 | 0.0 | 1.0 | 0.00 | 0.00 | 0.00 | 48 | 1005.1 |
| 20260503221157 | 68 | 210 | 7.0 | 10.0 | 0.00 | 0.00 | 0.00 | 48 | 1005.2 |
| 20260503220653 | 68 | 218 | 7.0 | 14.0 | 0.00 | 0.00 | 0.00 | 48 | 1005.4 |
| 20260503220150 | 68 | 219 | 6.0 | 10.0 | 0.00 | 0.00 | 0.00 | 47 | 1005.5 |
| 20260503215647 | 68 | 254 | 3.0 | 5.0 | 0.00 | 0.00 | 0.00 | 49 | 1005.5 |
| 20260503215143 | 68 | 200 | 4.0 | 7.0 | 0.00 | 0.00 | 0.00 | 48 | 1005.4 |
| 20260503214642 | 68 | 219 | 5.0 | 6.0 | 0.00 | 0.00 | 0.00 | 47 | 1005.5 |
| 20260503214138 | 67 | 226 | 7.0 | 10.0 | 0.00 | 0.00 | 0.00 | 48 | 1005.6 |
| 20260503213632 | 68 | 192 | 5.0 | 6.0 | 0.00 | 0.00 | 0.00 | 48 | 1005.8 |
| 20260503213128 | 67 | 149 | 5.0 | 8.0 | 0.00 | 0.00 | 0.00 | 46 | 1005.6 |
| 20260503212625 | 67 | 306 | 3.0 | 3.0 | 0.00 | 0.00 | 0.00 | 47 | 1006.0 |
| 20260503212123 | 67 | 123 | 4.0 | 5.0 | 0.00 | 0.00 | 0.00 | 47 | 1006.0 |
| 20260503211620 | 67 | 191 | 5.0 | 7.0 | 0.00 | 0.00 | 0.00 | 47 | 1006.2 |
| 20260503211116 | 67 | 165 | 8.0 | 13.0 | 0.00 | 0.00 | 0.00 | 47 | 1006.1 |
| 20260503210613 | 67 | 249 | 5.0 | 7.0 | 0.00 | 0.00 | 0.00 | 47 | 1006.4 |
| 20260503210109 | 67 | 172 | 6.0 | 8.0 | 0.00 | 0.00 | 0.00 | 47 | 1006.5 |
| 20260503205605 | 67 | 260 | 2.0 | 2.0 | 0.00 | 0.00 | 0.00 | 48 | 1006.2 |
| 20260503205101 | 67 | 279 | 5.0 | 8.0 | 0.00 | 0.00 | 0.00 | 47 | 1006.4 |
| 20260503204558 | 67 | 242 | 4.0 | 6.0 | 0.00 | 0.00 | 0.00 | 47 | 1006.4 |
| 20260503204055 | 65 | 217 | 7.0 | 10.0 | 0.00 | 0.00 | 0.00 | 48 | 1006.5 |
| 20260503203552 | 65 | 269 | 6.0 | 8.0 | 0.00 | 0.00 | 0.00 | 48 | 1006.8 |
| 20260503203049 | 66 | 192 | 4.0 | 7.0 | 0.00 | 0.00 | 0.00 | 48 | 1006.9 |
| 20260503202547 | 66 | 201 | 1.0 | 2.0 | 0.00 | 0.00 | 0.00 | 47 | 1006.9 |
| 20260503202045 | 66 | 217 | 7.0 | 8.0 | 0.00 | 0.00 | 0.00 | 49 | 1007.1 |
| 20260503201543 | 65 | 232 | 4.0 | 6.0 | 0.00 | 0.00 | 0.00 | 53 | 1007.3 |
| 20260503201040 | 64 | 239 | 8.0 | 11.0 | 0.00 | 0.00 | 0.00 | 53 | 1007.3 |
| 20260503200536 | 65 | 300 | 7.0 | 11.0 | 0.00 | 0.00 | 0.00 | 53 | 1007.7 |
| 20260503200033 | 64 | 223 | 4.0 | 6.0 | 0.00 | 0.00 | 0.00 | 56 | 1007.8 |
| 20260503195530 | 64 | 122 | 9.0 | 11.0 | 0.00 | 0.00 | 0.00 | 54 | 1007.8 |
| 20260503195027 | 64 | 102 | 6.0 | 9.0 | 0.00 | 0.00 | 0.00 | 55 | 1007.8 |
| 20260503194525 | 63 | 250 | 10.0 | 10.0 | 0.00 | 0.00 | 0.00 | 55 | 1007.8 |
| 20260503194024 | 64 | 237 | 1.0 | 2.0 | 0.00 | 0.00 | 0.00 | 55 | 1008.0 |
| 20260503193521 | 63 | 208 | 5.0 | 7.0 | 0.00 | 0.00 | 0.00 | 55 | 1007.7 |
| 20260503193016 | 62 | 221 | 7.0 | 9.0 | 0.00 | 0.00 | 0.00 | 55 | 1008.0 |
| 20260503192512 | 63 | 204 | 5.0 | 9.0 | 0.00 | 0.00 | 0.00 | 56 | 1008.0 |
| 20260503192008 | 62 | 288 | 4.0 | 6.0 | 0.00 | 0.00 | 0.00 | 57 | 1008.0 |
| 20260503191505 | 62 | 255 | 3.0 | 3.0 | 0.00 | 0.00 | 0.00 | 56 | 1008.1 |
| 20260503191001 | 61 | 267 | 5.0 | 7.0 | 0.00 | 0.00 | 0.00 | 55 | 1008.1 |
| 20260503190453 | 61 | 235 | 4.0 | 7.0 | 0.00 | 0.00 | 0.00 | 54 | 1008.1 |
| 20260503185950 | 61 | 225 | 7.0 | 10.0 | 0.00 | 0.00 | 0.00 | 55 | 1008.1 |
| 20260503185446 | 61 | 245 | 3.0 | 6.0 | 0.00 | 0.00 | 0.00 | 55 | 1008.0 |
| 20260503184946 | 61 | 243 | 4.0 | 6.0 | 0.00 | 0.00 | 0.00 | 55 | 1008.1 |
| 20260503184443 | 60 | 191 | 6.0 | 8.0 | 0.00 | 0.00 | 0.00 | 56 | 1008.3 |
| 20260503183939 | 60 | 234 | 4.0 | 5.0 | 0.00 | 0.00 | 0.00 | 57 | 1008.0 |
| 20260503183436 | 61 | 198 | 9.0 | 13.0 | 0.00 | 0.00 | 0.00 | 55 | 1008.4 |
| 20260503182933 | 60 | 164 | 8.0 | 9.0 | 0.00 | 0.00 | 0.00 | 56 | 1008.6 |
| 20260503182432 | 60 | 181 | 5.0 | 8.0 | 0.00 | 0.00 | 0.00 | 57 | 1008.6 |
| 20260503181929 | 59 | 233 | 6.0 | 11.0 | 0.00 | 0.00 | 0.00 | 59 | 1008.6 |
| 20260503181426 | 59 | 208 | 11.0 | 20.0 | 0.00 | 0.00 | 0.00 | 57 | 1008.6 |
| 20260503180921 | 58 | 139 | 10.0 | 11.0 | 0.00 | 0.00 | 0.00 | 59 | 1009.1 |
| 20260503180420 | 58 | 219 | 4.0 | 9.0 | 0.00 | 0.00 | 0.00 | 61 | 1009.1 |
| 20260503175916 | 58 | 356 | 7.0 | 9.0 | 0.00 | 0.00 | 0.00 | 60 | 1009.3 |
| 20260503175415 | 59 | 196 | 7.0 | 11.0 | 0.00 | 0.00 | 0.00 | 59 | 1009.5 |
| 20260503174909 | 59 | 246 | 4.0 | 5.0 | 0.00 | 0.00 | 0.00 | 62 | 1009.5 |
| 20260503174409 | 59 | 165 | 6.0 | 8.0 | 0.00 | 0.00 | 0.00 | 60 | 1009.6 |
| 20260503173909 | 60 | 216 | 7.0 | 9.0 | 0.00 | 0.00 | 0.00 | 61 | 1009.8 |
| 20260503173405 | 59 | 260 | 5.0 | 8.0 | 0.00 | 0.00 | 0.00 | 61 | 1009.9 |
| 20260503172902 | 58 | 238 | 5.0 | 6.0 | 0.00 | 0.00 | 0.00 | 63 | 1010.0 |
| 20260503172359 | 59 | 235 | 5.0 | 7.0 | 0.00 | 0.00 | 0.00 | 64 | 1010.2 |
| 20260503171855 | 57 | 150 | 7.0 | 8.0 | 0.00 | 0.00 | 0.00 | 65 | 1010.4 |
| 20260503171352 | 56 | 179 | 4.0 | 7.0 | 0.00 | 0.00 | 0.00 | 66 | 1010.5 |
| 20260503170850 | 58 | 213 | 14.0 | 18.0 | 0.00 | 0.00 | 0.00 | 65 | 1010.7 |
| 20260503170346 | 55 | 222 | 5.0 | 9.0 | 0.00 | 0.00 | 0.00 | 69 | 1010.8 |
| 20260503150738 | 55 | 254 | 3.0 | 6.0 | 0.00 | 0.00 | 0.00 | 63 | 1012.4 |
| 20260503150234 | 56 | 253 | 3.0 | 3.0 | 0.00 | 0.00 | 0.00 | 65 | 1012.2 |
| 20260503140159 | 52 | 304 | 3.0 | 7.0 | 0.00 | 0.00 | 0.00 | 66 | 1012.6 |
| 20260503131128 | 51 | 193 | 2.0 | 3.0 | 0.00 | 0.00 | 0.00 | 62 | 1013.0 |
| 20260503130626 | 51 | 201 | 2.0 | 2.0 | 0.00 | 0.00 | 0.00 | 63 | 1013.0 |
| 20260503130124 | 51 | 185 | 2.0 | 5.0 | 0.00 | 0.00 | 0.00 | 62 | 1013.0 |
| 20260503110510 | 48 | 265 | 4.0 | 6.0 | 0.00 | 0.00 | 0.00 | 63 | 1012.3 |
| 20260503090356 | 47 | 152 | 2.0 | 3.0 | 0.00 | 0.00 | 0.00 | 59 | 1013.3 |
| 20260503081323 | 47 | 225 | 2.0 | 2.0 | 0.00 | 0.00 | 0.00 | 59 | 1013.6 |
| 20260503080820 | 47 | 229 | 2.0 | 3.0 | 0.00 | 0.00 | 0.00 | 58 | 1013.7 |
| 20260503080317 | 46 | 197 | 0.0 | 0.0 | 0.00 | 0.00 | 0.00 | 60 | 1013.7 |
| 20260503072747 | 46 | 211 | 3.0 | 3.0 | 0.00 | 0.00 | 0.00 | 60 | 1013.7 |
| 20260503072244 | 46 | 214 | 1.0 | 1.0 | 0.00 | 0.00 | 0.00 | 61 | 1013.9 |
| 20260503071740 | 45 | 246 | 3.0 | 3.0 | 0.00 | 0.00 | 0.00 | 61 | 1013.7 |
| 20260503071237 | 45 | 252 | 2.0 | 2.0 | 0.00 | 0.00 | 0.00 | 62 | 1014.0 |
| 20260503070734 | 45 | 308 | 1.0 | 2.0 | 0.00 | 0.00 | 0.00 | 62 | 1014.0 |
| 20260503070232 | 45 | 237 | 0.0 | 0.0 | 0.00 | 0.00 | 0.00 | 63 | 1014.0 |
| 20260503060157 | 45 | 241 | 1.0 | 2.0 | 0.00 | 0.00 | 0.00 | 64 | 1014.4 |
| 20260503054644 | 45 | 229 | 1.0 | 2.0 | 0.00 | 0.00 | 0.00 | 63 | 1014.4 |
| 20260503054141 | 45 | 188 | 1.0 | 2.0 | 0.00 | 0.00 | 0.00 | 63 | 1014.8 |
| 20260503053639 | 46 | 195 | 0.0 | 0.0 | 0.00 | 0.00 | 0.00 | 63 | 1014.5 |
| 20260503053138 | 45 | 194 | 0.0 | 1.0 | 0.00 | 0.00 | 0.00 | 62 | 1014.5 |
| 20260503052633 | 45 | 190 | 2.0 | 3.0 | 0.00 | 0.00 | 0.00 | 63 | 1014.8 |
| 20260503052130 | 45 | 222 | 2.0 | 2.0 | 0.00 | 0.00 | 0.00 | 63 | 1014.7 |
| 20260503051625 | 45 | 229 | 0.0 | 1.0 | 0.00 | 0.00 | 0.00 | 63 | 1014.8 |
| 20260503051123 | 46 | 229 | 0.0 | 0.0 | 0.00 | 0.00 | 0.00 | 62 | 1015.0 |
| 20260503050620 | 45 | 231 | 2.0 | 3.0 | 0.00 | 0.00 | 0.00 | 63 | 1014.7 |
| 20260503050116 | 45 | 196 | 4.0 | 5.0 | 0.00 | 0.00 | 0.00 | 63 | 1015.0 |
| 20260503045614 | 45 | 209 | 0.0 | 0.0 | 0.00 | 0.01 | 0.01 | 64 | 1014.9 |
| 20260503045111 | 45 | 235 | 1.0 | 1.0 | 0.00 | 0.01 | 0.01 | 64 | 1015.0 |
| 20260503044607 | 45 | 216 | 0.0 | 0.0 | 0.00 | 0.01 | 0.01 | 65 | 1014.9 |
| 20260503044105 | 45 | 214 | 0.0 | 0.0 | 0.00 | 0.01 | 0.01 | 64 | 1015.1 |
| 20260503043601 | 45 | 180 | 0.0 | 1.0 | 0.00 | 0.01 | 0.01 | 64 | 1014.8 |
| 20260503043058 | 45 | 232 | 1.0 | 1.0 | 0.00 | 0.01 | 0.01 | 64 | 1014.9 |
| 20260503042555 | 45 | 212 | 0.0 | 0.0 | 0.00 | 0.01 | 0.01 | 64 | 1015.0 |
| 20260503042051 | 45 | 211 | 0.0 | 0.0 | 0.00 | 0.01 | 0.01 | 65 | 1015.0 |
| 20260503041548 | 45 | 190 | 0.0 | 0.0 | 0.00 | 0.01 | 0.01 | 65 | 1015.1 |
| 20260503041046 | 45 | 211 | 0.0 | 0.0 | 0.00 | 0.01 | 0.01 | 65 | 1015.1 |
| 20260503040543 | 45 | 199 | 0.0 | 0.0 | 0.00 | 0.01 | 0.01 | 64 | 1015.1 |
| 20260503040040 | 45 | 168 | 1.0 | 1.0 | 0.00 | 0.01 | 0.01 | 65 | 1015.1 |
| 20260503035536 | 45 | 196 | 1.0 | 2.0 | 0.00 | 0.01 | 0.01 | 65 | 1015.2 |
| 20260503035034 | 45 | 205 | 1.0 | 1.0 | 0.00 | 0.01 | 0.01 | 64 | 1015.2 |
| 20260503034531 | 45 | 206 | 0.0 | 0.0 | 0.00 | 0.01 | 0.01 | 64 | 1015.2 |
| 20260503034028 | 45 | 201 | 0.0 | 0.0 | 0.00 | 0.01 | 0.01 | 64 | 1015.2 |
| 20260503033526 | 46 | 201 | 0.0 | 0.0 | 0.00 | 0.01 | 0.01 | 64 | 1015.5 |
| 20260503033023 | 46 | 202 | 0.0 | 0.0 | 0.00 | 0.01 | 0.01 | 63 | 1015.4 |
| 20260503032522 | 46 | 223 | 0.0 | 0.0 | 0.00 | 0.01 | 0.01 | 63 | 1015.3 |
| 20260503032019 | 46 | 199 | 0.0 | 0.0 | 0.00 | 0.01 | 0.01 | 62 | 1015.3 |
| 20260503031517 | 46 | 249 | 3.0 | 3.0 | 0.00 | 0.01 | 0.01 | 62 | 1015.3 |
| 20260503031014 | 46 | 203 | 0.0 | 1.0 | 0.00 | 0.01 | 0.01 | 62 | 1015.3 |
| 20260503030510 | 46 | 185 | 0.0 | 1.0 | 0.00 | 0.01 | 0.01 | 62 | 1015.4 |
| 20260503030007 | 46 | 224 | 0.0 | 0.0 | 0.00 | 0.01 | 0.01 | 61 | 1015.4 |
| 20260503025503 | 46 | 224 | 0.0 | 1.0 | 0.00 | 0.01 | 0.01 | 62 | 1015.5 |
| 20260503025001 | 46 | 213 | 0.0 | 0.0 | 0.00 | 0.01 | 0.01 | 62 | 1015.5 |
| 20260503024457 | 46 | 214 | 2.0 | 2.0 | 0.00 | 0.01 | 0.01 | 61 | 1015.6 |
| 20260503023955 | 46 | 218 | 0.0 | 0.0 | 0.00 | 0.01 | 0.01 | 62 | 1015.5 |
| 20260503023451 | 46 | 198 | 0.0 | 1.0 | 0.00 | 0.01 | 0.01 | 62 | 1015.6 |
| 20260503022948 | 46 | 201 | 0.0 | 0.0 | 0.00 | 0.01 | 0.01 | 62 | 1015.5 |
| 20260503022444 | 46 | 197 | 0.0 | 0.0 | 0.00 | 0.01 | 0.01 | 62 | 1015.5 |
| 20260503021940 | 46 | 201 | 0.0 | 0.0 | 0.00 | 0.01 | 0.01 | 61 | 1015.3 |
| 20260503021436 | 47 | 194 | 2.0 | 2.0 | 0.00 | 0.01 | 0.01 | 61 | 1015.4 |
| 20260503020934 | 46 | 192 | 0.0 | 0.0 | 0.00 | 0.01 | 0.01 | 61 | 1015.3 |
| 20260503020431 | 46 | 196 | 1.0 | 2.0 | 0.00 | 0.01 | 0.01 | 62 | 1015.4 |
| 20260503015927 | 46 | 202 | 0.0 | 0.0 | 0.00 | 0.01 | 0.01 | 62 | 1015.3 |
| 20260503015424 | 46 | 210 | 0.0 | 1.0 | 0.00 | 0.01 | 0.01 | 61 | 1015.1 |
| 20260503014920 | 46 | 208 | 0.0 | 0.0 | 0.00 | 0.01 | 0.01 | 61 | 1015.3 |
| 20260503014417 | 47 | 197 | 0.0 | 0.0 | 0.00 | 0.01 | 0.01 | 62 | 1015.5 |
| 20260503013916 | 47 | 197 | 0.0 | 0.0 | 0.00 | 0.01 | 0.01 | 61 | 1015.2 |
| 20260503013412 | 47 | 213 | 0.0 | 0.0 | 0.00 | 0.01 | 0.01 | 60 | 1015.1 |
| 20260503012909 | 47 | 212 | 0.0 | 0.0 | 0.00 | 0.01 | 0.01 | 60 | 1015.2 |
| 20260503012408 | 47 | 213 | 0.0 | 0.0 | 0.00 | 0.01 | 0.01 | 60 | 1015.2 |
| 20260503011903 | 47 | 213 | 0.0 | 0.0 | 0.00 | 0.01 | 0.01 | 59 | 1015.1 |
| 20260503011400 | 48 | 213 | 0.0 | 0.0 | 0.00 | 0.01 | 0.01 | 59 | 1015.2 |
| 20260503010857 | 48 | 210 | 0.0 | 0.0 | 0.00 | 0.01 | 0.01 | 57 | 1015.2 |
| 20260503010354 | 48 | 214 | 0.0 | 0.0 | 0.00 | 0.01 | 0.01 | 57 | 1015.2 |
| 20260503005850 | 48 | 213 | 0.0 | 0.0 | 0.00 | 0.01 | 0.01 | 56 | 1015.4 |
| 20260503005349 | 49 | 213 | 0.0 | 0.0 | 0.00 | 0.01 | 0.01 | 55 | 1015.4 |
| 20260503004844 | 50 | 212 | 0.0 | 0.0 | 0.00 | 0.01 | 0.01 | 53 | 1015.3 |
| 20260503004342 | 50 | 217 | 0.0 | 0.0 | 0.00 | 0.01 | 0.01 | 53 | 1015.3 |
| 20260503003839 | 51 | 205 | 0.0 | 0.0 | 0.00 | 0.01 | 0.01 | 53 | 1015.2 |
| 20260503003336 | 51 | 206 | 0.0 | 1.0 | 0.00 | 0.01 | 0.01 | 52 | 1015.2 |
| 20260503002833 | 51 | 257 | 0.0 | 0.0 | 0.00 | 0.01 | 0.01 | 53 | 1015.3 |
| 20260503002330 | 52 | 237 | 0.0 | 0.0 | 0.00 | 0.01 | 0.01 | 50 | 1015.3 |
| 20260503001827 | 52 | 239 | 1.0 | 1.0 | 0.00 | 0.01 | 0.01 | 51 | 1015.4 |
| 20260503001323 | 53 | 212 | 0.0 | 0.0 | 0.00 | 0.01 | 0.01 | 50 | 1015.2 |
| 20260503000820 | 53 | 253 | 1.0 | 2.0 | 0.00 | 0.01 | 0.01 | 47 | 1015.4 |
| 20260503000319 | 53 | 276 | 1.0 | 1.0 | 0.00 | 0.01 | 0.01 | 48 | 1015.4 |
| 20260502235815 | 53 | 242 | 2.0 | 2.0 | 0.00 | 0.01 | 0.01 | 47 | 1015.5 |
| 20260502235312 | 54 | 260 | 1.0 | 2.0 | 0.00 | 0.01 | 0.01 | 48 | 1015.3 |
| 20260502234809 | 54 | 272 | 1.0 | 1.0 | 0.00 | 0.01 | 0.01 | 46 | 1015.4 |
| 20260502234306 | 54 | 248 | 3.0 | 3.0 | 0.00 | 0.01 | 0.01 | 45 | 1015.5 |
| 20260502233802 | 54 | 272 | 3.0 | 3.0 | 0.00 | 0.01 | 0.01 | 45 | 1015.4 |